Sacramento, CA

5:17 PM PST on February 27, 2017 (GMT -0800)
Sacramento Executive

Weather History for KSAC - November, 2011

Change the Weather History Date:

Saturday, November 12, 2011

  Actual Average Record
Temperature  
Mean Temperature 56 °F -  
Max Temperature 65 °F 65 °F 78 °F (1942)
Min Temperature 46 °F 44 °F 29 °F (1978)
Degree Days  
Heating Degree Days 9    
Month to date heating degree days 152  
Cooling Degree Days 0    
Month to date cooling degree days 0  
Year to date cooling degree days 1153  
Growing Degree Days 5 (Base 50)    
Moisture  
Dew Point 48 °F    
Average Humidity 76    
Maximum Humidity 100    
Minimum Humidity 52    
Precipitation  
Precipitation T in 0.06 in 2.08 in (1981)
Month to date precipitation 0.26 0.70  
Year to date precipitation 16.20 13.89  
Since 1 July precipitation 1.60  
Sea Level Pressure  
Sea Level Pressure 29.87 in    
Wind  
Wind Speed 4 mph (NNW)    
Max Wind Speed 12 mph    
Max Gust Speed 14 mph    
Visibility 5 miles    
Events Fog , Rain    
T = Trace of Precipitation, MM = Missing Value Source: NWS Daily Summary

Daily Weather History Graph

Daily Weather History Graph

Search for Another Location

Airport or City:

Trip Planner

Search our weather history database for the weather conditions in past years. The results will help you decide how hot, cold, wet, or windy it might be!

Date:

Astronomy

Nov. 12, 2011 Rise Set
Actual Time 6:44 AM PST 4:55 PM PST
Civil Twilight 6:16 AM PST 5:23 PM PST
Nautical Twilight 5:44 AM PST 5:55 PM PST
Astronomical Twilight 5:13 AM PST 6:26 PM PST
Moon 6:17 PM PST (11/12) 8:29 AM PST (11/12)
Length of Visible Light 11h 07m
Length of Day
10h 11m
Waning Gibbous, 96% of the Moon is Illuminated
Nov 12
Waning Gibbous
Nov 18
Last Quarter
Nov 24
New
Dec 2
First Quarter
Dec 10
Full

Hourly Weather History & Observations

Time (PST) Temp. Dew Point Humidity Pressure Visibility Wind Dir Wind Speed Gust Speed Precip Events Conditions
12:20 AM 51.8 °F 50.0 °F 94% 29.87 in 4.0 mi ENE 4.6 mph - 0.00 in Rain Light Rain
12:31 AM 51.8 °F 50.0 °F 94% 29.87 in 5.0 mi ENE 3.5 mph - 0.00 in Rain Light Rain
12:44 AM 51.8 °F 50.0 °F 94% 29.86 in 5.0 mi ENE 5.8 mph - 0.00 in   Mostly Cloudy
12:53 AM 52.0 °F 50.0 °F 93% 29.86 in 5.0 mi ENE 4.6 mph - 0.00 in   Partly Cloudy
1:53 AM 50.0 °F 48.9 °F 96% 29.85 in 5.0 mi NNW 3.5 mph - N/A   Clear
2:05 AM 48.2 °F 46.4 °F 93% 29.85 in 1.8 mi Calm Calm - N/A   Clear
2:16 AM 48.2 °F 46.4 °F 93% 29.85 in 0.5 mi Calm Calm - N/A Fog Fog
2:49 AM 48.2 °F 48.2 °F 100% 29.86 in 2.0 mi Calm Calm - N/A   Clear
2:53 AM 48.0 °F 46.9 °F 96% 29.86 in 3.0 mi NNE 4.6 mph - N/A   Clear
3:53 AM 48.0 °F 46.9 °F 96% 29.83 in 2.5 mi Calm Calm - N/A   Clear
4:00 AM 46.4 °F 46.4 °F 100% 29.83 in 0.8 mi Calm Calm - N/A   Clear
4:11 AM 48.2 °F 46.4 °F 93% 29.84 in 1.2 mi NW 5.8 mph - N/A   Partly Cloudy
4:19 AM 48.2 °F 48.2 °F 100% 29.84 in 0.8 mi NW 8.1 mph - N/A   Mist
4:51 AM 48.2 °F 48.2 °F 100% 29.85 in 1.2 mi North 6.9 mph - N/A   Overcast
4:53 AM 48.9 °F 48.0 °F 97% 29.85 in 1.2 mi North 6.9 mph - N/A   Overcast
5:09 AM 48.2 °F 48.2 °F 100% 29.85 in 0.8 mi NNW 5.8 mph - N/A   Mist
5:17 AM 48.2 °F 48.2 °F 100% 29.85 in 1.2 mi NNW 6.9 mph - N/A   Overcast
5:35 AM 48.2 °F 48.2 °F 100% 29.85 in 0.8 mi NNW 6.9 mph - N/A   Mist
5:53 AM 48.9 °F 48.0 °F 97% 29.85 in 2.5 mi NNW 5.8 mph - N/A   Overcast
6:02 AM 48.2 °F 48.2 °F 100% 29.85 in 3.0 mi NNW 5.8 mph - N/A   Mostly Cloudy
6:14 AM 48.2 °F 48.2 °F 100% 29.86 in 4.0 mi NNW 5.8 mph - N/A   Scattered Clouds
6:32 AM 48.2 °F 48.2 °F 100% 29.86 in 4.0 mi NNW 5.8 mph - N/A   Mostly Cloudy
6:53 AM 48.9 °F 48.0 °F 97% 29.87 in 2.5 mi NNW 5.8 mph - N/A   Scattered Clouds
7:53 AM 50.0 °F 48.9 °F 96% 29.89 in 2.5 mi NW 3.5 mph - N/A   Partly Cloudy
8:38 AM 51.8 °F 50.0 °F 94% 29.89 in 3.0 mi NNW 4.6 mph - N/A   Partly Cloudy
8:53 AM 52.0 °F 50.0 °F 93% 29.90 in 4.0 mi NNW 6.9 mph - N/A   Clear
9:53 AM 55.0 °F 51.1 °F 86% 29.91 in 7.0 mi NNW 8.1 mph - N/A   Clear
10:53 AM 59.0 °F 51.1 °F 75% 29.91 in 10.0 mi NNW 10.4 mph - N/A   Clear
11:53 AM 62.1 °F 50.0 °F 65% 29.90 in 10.0 mi NNW 4.6 mph - N/A   Clear
12:53 PM 63.0 °F 48.0 °F 58% 29.88 in 10.0 mi Calm Calm - N/A   Clear
1:53 PM 64.0 °F 46.9 °F 54% 29.87 in 10.0 mi Calm Calm - N/A   Clear
2:53 PM 62.1 °F 46.9 °F 58% 29.88 in 10.0 mi NNW 6.9 mph - N/A   Clear
3:53 PM 63.0 °F 48.0 °F 58% 29.90 in 10.0 mi NNW 8.1 mph - N/A   Clear
4:53 PM 60.1 °F 46.9 °F 62% 29.90 in 10.0 mi NNW 3.5 mph - N/A   Clear
5:53 PM 54.0 °F 46.9 °F 77% 29.90 in 10.0 mi Calm Calm - N/A   Clear
6:53 PM 52.0 °F 46.9 °F 83% 29.90 in 10.0 mi Calm Calm - N/A   Clear
7:53 PM 50.0 °F 46.9 °F 89% 29.90 in 10.0 mi Calm Calm - N/A   Clear
8:53 PM 50.0 °F 46.9 °F 89% 29.91 in 9.0 mi Calm Calm - N/A   Clear
9:53 PM 48.9 °F 46.9 °F 93% 29.92 in 7.0 mi WSW 3.5 mph - N/A   Clear
10:53 PM 50.0 °F 46.0 °F 86% 29.94 in 8.0 mi Calm Calm - N/A   Clear
11:53 PM 48.9 °F 46.0 °F 90% 29.96 in 8.0 mi Calm Calm - N/A   Clear